When you browse on this site, cookies collect data to enhance your experience and personalize the content and advertising you see.
Visit our Privacy Policy to learn more. By continuing to use the site, you agree to this use of cookies and data.
  • In Romania
  • List of Countries
  • For 7 days
  • Water Temperature
  • Weather Map
  • Weather Widgets
  • user-avatar
    Login

    Hourly Weather Gorodischi

    Today, 5 June, Friday

    Time Temperature Precipitation Wind Pressure Humidity
    00:00 +10°C° 0 mm 3 mps 739 mmHg 93%
    01:00 +10°C° 0 mm 3 mps 739 mmHg 94%
    02:00 +10°C° 0 mm 3 mps 739 mmHg 94%
    03:00 +10°C° 0 mm 3 mps 740 mmHg 94%
    04:00 +10°C° 0 mm 4 mps 740 mmHg 93%
    05:00 +11°C° 0 mm 4 mps 740 mmHg 92%
    06:00 +11°C° 0 mm 4 mps 740 mmHg 91%
    07:00 +13°C° 0 mm 5 mps 740 mmHg 87%
    08:00 +14°C° 0 mm 6 mps 740 mmHg 83%
    09:00 +16°C° 0 mm 6 mps 740 mmHg 78%
    10:00 +16°C° 0.4 mm 7 mps 740 mmHg 76%
    11:00 +17°C° 0.4 mm 8 mps 740 mmHg 73%
    12:00 +18°C° 0.4 mm 8 mps 740 mmHg 71%
    13:00 +17°C° 0.9 mm 8 mps 740 mmHg 75%
    14:00 +16°C° 0.9 mm 8 mps 740 mmHg 79%
    15:00 +15°C° 0.9 mm 8 mps 740 mmHg 84%
    16:00 +14°C° 1.1 mm 7 mps 740 mmHg 86%
    17:00 +14°C° 1.1 mm 6 mps 739 mmHg 89%
    18:00 +13°C° 1.1 mm 6 mps 739 mmHg 91%
    19:00 +12°C° 0.4 mm 5 mps 739 mmHg 92%
    20:00 +12°C° 0.4 mm 4 mps 740 mmHg 94%
    21:00 +12°C° 0.4 mm 3 mps 740 mmHg 95%
    22:00 +11°C° 0 mm 3 mps 740 mmHg 95%
    23:00 +11°C° 0 mm 3 mps 740 mmHg 96%

    Tomorrow, 6 June, Saturday

    Time Temperature Precipitation Wind Pressure Humidity
    00:00 +10°C° 0 mm 3 mps 740 mmHg 96%
    01:00 +10°C° 0 mm 2 mps 740 mmHg 97%
    02:00 +10°C° 0 mm 2 mps 741 mmHg 97%
    03:00 +10°C° 0 mm 2 mps 741 mmHg 98%
    04:00 +12°C° 0 mm 2 mps 741 mmHg 98%
    05:00 +13°C° 0 mm 2 mps 741 mmHg 98%
    06:00 +14°C° 0 mm 2 mps 741 mmHg 97%
    07:00 +14°C° 0 mm 3 mps 742 mmHg 95%
    08:00 +16°C° 0 mm 3 mps 742 mmHg 93%
    09:00 +17°C° 0 mm 3 mps 742 mmHg 91%
    10:00 +18°C° 0 mm 3 mps 743 mmHg 87%
    11:00 +19°C° 0 mm 3 mps 743 mmHg 84%
    12:00 +21°C° 0 mm 3 mps 743 mmHg 80%
    13:00 +21°C° 0 mm 4 mps 743 mmHg 78%
    14:00 +22°C° 0 mm 4 mps 743 mmHg 76%
    15:00 +23°C° 0 mm 4 mps 743 mmHg 74%
    16:00 +23°C° 0.2 mm 4 mps 743 mmHg 77%
    17:00 +23°C° 0.2 mm 4 mps 743 mmHg 80%
    18:00 +24°C° 0.2 mm 3 mps 742 mmHg 82%
    19:00 +21°C° 0.5 mm 3 mps 743 mmHg 85%
    20:00 +20°C° 0.5 mm 3 mps 743 mmHg 87%
    21:00 +19°C° 0.5 mm 3 mps 743 mmHg 90%
    22:00 +19°C° 0.2 mm 3 mps 743 mmHg 90%
    23:00 +18°C° 0.2 mm 3 mps 744 mmHg 91%

    Day after tomorrow, 7 June, Sunday

    Time Temperature Precipitation Wind Pressure Humidity
    00:00 +18°C° 0.2 mm 3 mps 744 mmHg 92%
    01:00 +18°C° 0.1 mm 2 mps 744 mmHg 93%
    02:00 +17°C° 0.1 mm 2 mps 744 mmHg 94%
    03:00 +17°C° 0.1 mm 2 mps 745 mmHg 95%
    04:00 +17°C° 0 mm 2 mps 745 mmHg 94%
    05:00 +18°C° 0 mm 2 mps 745 mmHg 93%
    06:00 +18°C° 0 mm 2 mps 745 mmHg 92%
    07:00 +20°C° 0 mm 1 mps 746 mmHg 87%
    08:00 +22°C° 0 mm 1 mps 746 mmHg 82%
    09:00 +23°C° 0 mm 1 mps 746 mmHg 78%
    10:00 +24°C° 0.6 mm 1 mps 746 mmHg 75%
    11:00 +25°C° 0.6 mm 1 mps 746 mmHg 71%
    12:00 +26°C° 0.6 mm 1 mps 746 mmHg 68%
    13:00 +26°C° 1.8 mm 1 mps 746 mmHg 69%
    14:00 +26°C° 1.8 mm 1 mps 746 mmHg 69%
    15:00 +26°C° 1.8 mm 1 mps 746 mmHg 69%
    16:00 +26°C° 1.3 mm 1 mps 746 mmHg 73%
    17:00 +26°C° 1.3 mm 1 mps 746 mmHg 77%
    18:00 +26°C° 1.3 mm 1 mps 746 mmHg 80%
    19:00 +24°C° 0.1 mm 1 mps 746 mmHg 83%
    20:00 +23°C° 0.1 mm 1 mps 746 mmHg 86%
    21:00 +22°C° 0.1 mm 1 mps 746 mmHg 89%
    22:00 +21°C° 0 mm 1 mps 747 mmHg 90%
    23:00 +21°C° 0 mm 1 mps 747 mmHg 91%

    8 June, Monday

    Time Temperature Precipitation Wind Pressure Humidity
    00:00 +20°C° 0 mm 1 mps 747 mmHg 92%
    01:00 +20°C° 0 mm 1 mps 747 mmHg 93%
    02:00 +19°C° 0 mm 1 mps 747 mmHg 93%
    03:00 +19°C° 0 mm 1 mps 747 mmHg 94%
    04:00 +19°C° 0 mm 1 mps 747 mmHg 94%
    05:00 +20°C° 0 mm 1 mps 747 mmHg 93%
    06:00 +20°C° 0 mm 1 mps 747 mmHg 93%
    07:00 +22°C° 0 mm 1 mps 747 mmHg 89%
    08:00 +23°C° 0 mm 1 mps 747 mmHg 85%
    09:00 +24°C° 0 mm 1 mps 747 mmHg 81%
    10:00 +25°C° 0 mm 1 mps 747 mmHg 77%
    11:00 +26°C° 0 mm 1 mps 747 mmHg 72%
    12:00 +27°C° 0 mm 1 mps 747 mmHg 68%
    13:00 +27°C° 0.3 mm 1 mps 747 mmHg 68%
    14:00 +27°C° 0.3 mm 1 mps 747 mmHg 68%
    15:00 +28°C° 0.3 mm 1 mps 747 mmHg 68%
    16:00 +27°C° 0.7 mm 1 mps 747 mmHg 71%
    17:00 +27°C° 0.7 mm 1 mps 746 mmHg 74%
    18:00 +27°C° 0.7 mm 1 mps 746 mmHg 78%
    19:00 +25°C° 0.1 mm 1 mps 746 mmHg 81%
    20:00 +24°C° 0.1 mm 1 mps 746 mmHg 85%
    21:00 +23°C° 0.1 mm 1 mps 746 mmHg 88%
    22:00 +22°C° 0 mm 1 mps 746 mmHg 89%
    23:00 +20°C° 0 mm 0 mps 747 mmHg 89%

    9 June, Tuesday

    Time Temperature Precipitation Wind Pressure Humidity
    00:00 +19°C° 0 mm 0 mps 747 mmHg 90%
    01:00 +19°C° 0 mm 0 mps 747 mmHg 90%
    02:00 +18°C° 0 mm 0 mps 747 mmHg 91%
    03:00 +18°C° 0 mm 0 mps 747 mmHg 91%
    04:00 +19°C° 0 mm 0 mps 747 mmHg 91%
    05:00 +19°C° 0 mm 0 mps 747 mmHg 90%
    06:00 +20°C° 0 mm 0 mps 747 mmHg 89%
    07:00 +23°C° 0.5 mm 1 mps 747 mmHg 87%
    08:00 +24°C° 0.5 mm 1 mps 747 mmHg 85%
    09:00 +25°C° 0.5 mm 2 mps 747 mmHg 82%
    10:00 +26°C° 0.9 mm 2 mps 747 mmHg 80%
    11:00 +26°C° 0.9 mm 2 mps 747 mmHg 77%
    12:00 +27°C° 0.9 mm 3 mps 747 mmHg 74%
    13:00 +27°C° 0.6 mm 3 mps 747 mmHg 76%
    14:00 +27°C° 0.6 mm 4 mps 747 mmHg 77%
    15:00 +27°C° 0.6 mm 4 mps 747 mmHg 78%
    16:00 +26°C° 0.2 mm 4 mps 747 mmHg 79%
    17:00 +26°C° 0.2 mm 4 mps 747 mmHg 80%
    18:00 +26°C° 0.2 mm 3 mps 747 mmHg 81%
    19:00 +25°C° 0.1 mm 3 mps 747 mmHg 84%
    20:00 +22°C° 0.1 mm 3 mps 747 mmHg 88%
    21:00 +21°C° 0.1 mm 3 mps 747 mmHg 91%
    22:00 +20°C° 0 mm 3 mps 747 mmHg 91%
    23:00 +19°C° 0 mm 2 mps 747 mmHg 92%

    10 June, Wednesday

    Time Temperature Precipitation Wind Pressure Humidity
    00:00 +19°C° 0 mm 2 mps 747 mmHg 92%
    01:00 +18°C° 0 mm 2 mps 747 mmHg 92%
    02:00 +18°C° 0 mm 2 mps 747 mmHg 93%
    03:00 +17°C° 0 mm 2 mps 747 mmHg 93%
    04:00 +18°C° 0 mm 2 mps 747 mmHg 93%
    05:00 +18°C° 0 mm 2 mps 748 mmHg 92%
    06:00 +18°C° 0 mm 2 mps 748 mmHg 92%
    07:00 +20°C° 0 mm 2 mps 748 mmHg 88%
    08:00 +21°C° 0 mm 3 mps 748 mmHg 85%
    09:00 +22°C° 0 mm 3 mps 748 mmHg 81%
    10:00 +24°C° 0 mm 3 mps 748 mmHg 78%
    11:00 +25°C° 0 mm 3 mps 748 mmHg 76%
    12:00 +25°C° 0 mm 4 mps 748 mmHg 74%
    13:00 +26°C° 0 mm 4 mps 748 mmHg 73%
    14:00 +26°C° 0 mm 4 mps 747 mmHg 72%
    15:00 +26°C° 0 mm 4 mps 747 mmHg 71%
    16:00 +26°C° 0.2 mm 3 mps 747 mmHg 74%
    17:00 +25°C° 0.2 mm 3 mps 747 mmHg 76%
    18:00 +25°C° 0.2 mm 3 mps 747 mmHg 79%
    19:00 +24°C° 0 mm 3 mps 747 mmHg 82%
    20:00 +21°C° 0 mm 2 mps 747 mmHg 85%
    21:00 +20°C° 0 mm 2 mps 747 mmHg 88%
    22:00 +19°C° 0 mm 2 mps 747 mmHg 89%
    23:00 +18°C° 0 mm 2 mps 747 mmHg 90%
    Show more